Tracking 19149 objects as of 22-Apr-2018
HD Live streaming from Space Station
objects crossing your sky now

FENGYUN 1C DEB

Track FENGYUN 1C DEB now!
10-day predictions


NORAD ID: 30520
Int'l Code: 1999-025AJJ
Perigee: 558.4 km
Apogee: 784.0 km
Inclination: 98.7 °
Period: 98.0 minutes
Semi major axis: 7042 km
RCS: 0.0177 m2 (small)
Launch date: May 10, 1999
Source: People's Republic of China (PRC)
Launch site: Taiyaun Space Center, China (TSC)

Note: This is SATELLITE DEBRIS
aabbcc
Your satellite tracking list
Your tracking list is empty




NASA's NSSDC Master Catalog

Two Line Element Set (TLE):
1 30520U 99025AJJ 18111.74013917 +.00000785 +00000-0 +11971-3 0  9991
2 30520 098.6878 018.1870 0160135 290.8805 129.9978 14.69057244598077
Source of the keplerian elements: AFSPC